EW7899 Weather Reports


Display with metric or nautical units.
time (UTC)temp
F
wind
direction
speed
MPH
gust
MPH
rain 1hr
in
rain 24hr
in
rain mn
in
humidity
%
barometer
mb
20260903003029 66 359 0.0 0.0 0.00 0.00 0.00 86 1010.6
20260903001507 66 359 0.0 0.0 0.00 0.00 0.00 84 1010.7
20260903000014 66 359 0.0 0.0 0.00 0.00 0.00 84 1010.3
20260902234517 67 359 0.0 0.0 0.00 0.00 0.00 85 1010.3
20260902233014 67 359 0.0 0.0 0.00 0.00 0.00 84 1010.4
20260902231523 67 61 0.0 0.0 0.00 0.00 0.00 84 1010.4
20260902230006 68 76 0.0 0.0 0.00 0.00 0.00 84 1010.8
20260902224510 68 48 0.0 2.0 0.00 0.00 0.00 84 1011.3
20260902223020 68 359 0.0 0.0 0.00 0.00 0.00 83 1011.6
20260902221521 69 32 0.0 0.0 0.00 0.00 0.00 83 1011.8
20260902220010 69 78 0.0 0.0 0.00 0.00 0.00 83 1011.8
20260902214517 69 359 0.0 2.0 0.00 0.00 0.00 81 1012.1
20260902213017 70 359 0.0 5.0 0.00 0.00 0.00 82 1011.8
20260902211507 71 359 1.0 7.0 0.00 0.00 0.00 80 1012.0
20260902210015 72 164 0.0 9.0 0.00 0.00 0.00 79 1012.3
20260902204516 72 134 0.0 5.0 0.00 0.00 0.00 79 1012.5
20260902203024 72 222 0.0 5.0 0.00 0.00 0.00 80 1012.4
20260902201517 72 102 1.0 8.0 0.00 0.00 0.00 79 1012.3
20260902200020 73 104 0.0 0.0 0.00 0.00 0.00 77 1012.5
20260902194526 74 131 0.0 2.0 0.00 0.00 0.00 79 1012.9
20260902193010 74 310 0.0 4.0 0.00 0.00 0.00 76 1012.8
20260902191520 74 143 0.0 5.0 0.00 0.00 0.00 77 1012.6
20260902190002 75 62 0.0 1.0 0.00 0.00 0.00 76 1013.0
20260902184512 75 95 0.0 2.0 0.00 0.00 0.00 76 1013.2
20260902183023 75 106 0.0 5.0 0.00 0.00 0.00 77 1013.2
20260902181510 75 92 2.0 8.0 0.00 0.00 0.00 76 1013.3
20260902180017 74 100 0.0 5.0 0.00 0.00 0.00 77 1013.6
20260902174524 74 92 0.0 6.0 0.00 0.00 0.00 78 1013.6
20260902173011 73 98 1.0 4.0 0.00 0.00 0.00 79 1013.6
20260902171519 73 111 0.0 7.0 0.00 0.00 0.00 79 1013.6
20260902170008 73 116 0.0 8.0 0.00 0.00 0.00 79 1013.6
20260902164519 73 93 0.0 6.0 0.00 0.00 0.00 81 1013.7
20260902163012 72 63 0.0 6.0 0.00 0.00 0.00 80 1014.2
20260902161505 72 60 1.0 7.0 0.00 0.00 0.00 82 1014.2
20260902160023 72 109 0.0 2.0 0.00 0.00 0.00 82 1014.3
20260902154523 72 121 0.0 0.0 0.00 0.00 0.00 82 1014.7
20260902153011 71 122 0.0 0.0 0.00 0.00 0.00 82 1014.7
20260902151520 71 93 0.0 0.0 0.00 0.00 0.00 85 1014.9
20260902150011 70 91 0.0 0.0 0.00 0.00 0.00 86 1014.8
20260902144518 69 104 0.0 2.0 0.00 0.00 0.00 87 1015.0
20260902143008 68 339 0.0 0.0 0.00 0.00 0.00 89 1015.1
20260902141520 67 23 0.0 0.0 0.00 0.00 0.00 89 1015.2
20260902140007 66 23 0.0 0.0 0.00 0.00 0.00 91 1015.3
20260902134516 66 68 0.0 0.0 0.00 0.00 0.00 93 1015.0
20260902133007 65 68 0.0 0.0 0.00 0.00 0.00 93 1015.2
20260902131515 64 71 0.0 0.0 0.00 0.00 0.00 94 1015.1
20260902130005 63 71 0.0 0.0 0.00 0.00 0.00 95 1015.4
20260902124513 62 71 0.0 0.0 0.00 0.00 0.00 95 1015.3
20260902123025 61 70 0.0 0.0 0.00 0.00 0.00 96 1015.1
20260902121512 60 71 0.0 0.0 0.00 0.00 0.00 96 1015.1
20260902120006 60 71 0.0 0.0 0.00 0.00 0.00 96 1015.0
20260902114522 59 72 0.0 0.0 0.00 0.00 0.00 96 1015.2
20260902113023 58 359 0.0 0.0 0.00 0.00 0.00 96 1015.5
20260902111513 58 70 0.0 0.0 0.00 0.00 0.00 95 1015.5
20260902110021 57 71 0.0 0.0 0.00 0.00 0.00 95 1015.6
20260902104515 57 72 0.0 0.0 0.00 0.00 0.00 95 1015.5
20260902103022 57 70 0.0 0.0 0.00 0.00 0.00 95 1015.4
20260902101513 57 70 0.0 0.0 0.00 0.00 0.00 95 1015.3
20260902100021 57 70 0.0 0.0 0.00 0.01 0.00 95 1015.2
20260902094509 57 70 0.0 0.0 0.00 0.01 0.00 95 1015.1
20260902093024 57 70 0.0 0.0 0.00 0.01 0.00 95 1014.9
20260902091510 58 71 0.0 0.0 0.00 0.01 0.00 95 1015.0
20260902090020 58 72 0.0 0.0 0.00 0.01 0.00 95 1015.0
20260902084516 58 72 0.0 0.0 0.00 0.01 0.00 95 1015.0
20260902083020 58 70 0.0 0.0 0.00 0.01 0.00 95 1015.0
20260902081508 59 71 0.0 0.0 0.00 0.01 0.00 95 1015.2
20260902080018 59 70 0.0 0.0 0.00 0.01 0.00 95 1015.1
20260902074515 59 70 0.0 0.0 0.00 0.01 0.00 95 1015.1
20260902073023 60 70 0.0 0.0 0.00 0.01 0.00 94 1015.0
20260902071510 60 70 0.0 0.0 0.00 0.01 0.00 94 1015.0
20260902070021 61 73 0.0 0.0 0.00 0.01 0.00 94 1015.0
20260902064512 61 70 0.0 0.0 0.00 0.01 0.00 95 1015.0
20260902063021 61 70 0.0 0.0 0.00 0.01 0.00 94 1015.0
20260902061516 62 70 0.0 0.0 0.00 0.01 0.00 94 1015.0
20260902060017 62 70 0.0 0.0 0.00 0.01 0.00 95 1015.0
20260902054505 62 71 0.0 0.0 0.00 0.01 0.00 95 1014.9
20260902053015 62 71 0.0 0.0 0.00 0.01 0.00 95 1014.8
20260902051507 62 70 0.0 0.0 0.00 0.01 0.00 95 1014.9
20260902050032 62 73 0.0 0.0 0.00 0.01 0.00 95 1014.9
20260902044505 62 72 0.0 0.0 0.00 0.01 0.00 95 1014.8
20260902043019 62 70 0.0 0.0 0.00 0.01 0.00 95 1014.8
20260902041505 62 70 0.0 0.0 0.00 0.01 0.00 94 1014.7
20260902040019 62 70 0.0 0.0 0.00 0.01 0.01 94 1014.7
20260902034523 62 72 0.0 0.0 0.00 0.01 0.01 94 1014.4
20260902033012 63 70 0.0 0.0 0.00 0.01 0.01 93 1014.2
20260902031524 63 72 0.0 0.0 0.00 0.01 0.01 93 1014.0
20260902030013 63 70 0.0 0.0 0.00 0.01 0.01 93 1013.9
20260902024533 64 70 0.0 0.0 0.00 0.01 0.01 93 1014.2
20260902023011 64 73 0.0 0.0 0.00 0.01 0.01 93 1014.2
20260902021514 64 70 0.0 0.0 0.00 0.01 0.01 92 1014.0
20260902020014 65 70 0.0 0.0 0.00 0.01 0.01 91 1013.7
20260902014520 65 118 0.0 0.0 0.00 0.01 0.01 91 1013.9
20260902013022 66 117 0.0 0.0 0.00 0.01 0.01 90 1014.1
20260902011509 66 116 0.0 0.0 0.00 0.01 0.01 88 1014.2
20260902010025 66 118 0.0 0.0 0.00 0.01 0.01 87 1014.0
20260902004509 66 116 0.0 0.0 0.00 0.01 0.01 87 1014.0